Location: Izdebno
(52.6670°N, 16.2170°E)
Time: 19:33:28
(UTC+02:00)

SR - Pass Details

Date: 27 February 2024
Orbit: 577 x 862 km, 66.7° (Epoch: 20 April)

Event Time Altitude Azimuth Distance (km) Brightness Sun altitude
Rises 21:11:28 0° 318° (NW) 3,313 ? -33.1°
Reaches altitude 10° 21:14:14 10° 328° (NNW) 2,334 ? -33.4°
Enters shadow 21:17:11 25° 355° (N) 1,476 ? -33.8°
